#timestamp,LO_Frequency,Hit,StdDev 
1557000015.1,286047002.4,N
1557000016.0,286047002.4,N
1557000035.8,286046999.7,N
1557000055.6,286047002.7,N
1557000075.5,286047000.2,N
1557000095.3,286047002.2,N
1557000115.1,286046999.7,N
1557000135.9,286047002.4,N
1557000155.7,286047002.6,N
1557000175.6,286046998.3,N
1557000195.4,286046999.4,N
1557000215.2,286046998.6,N
1557000235.1,286047002.5,N
1557000236.0,286047002.5,N
1557000255.8,286047001.3,N
1557000275.6,286047001.5,N
1557000295.5,286047001.7,N
1557000315.3,286047002.2,N
1557000335.2,286047002.9,N
1557000355.9,286047004.3,N
1557000375.7,286047002.0,N
1557000395.6,286047000.0,N
1557000415.4,286047000.8,N
1557000435.3,286046999.9,N
1557000455.1,286047002.7,N
1557000456.0,286047002.7,N
1557000475.8,286047002.1,N
1557000495.7,286047004.3,N
1557000515.5,286046999.8,N
1557000535.4,286047001.9,N
1557000555.2,286047001.3,N
1557000575.0,286047004.0,N
1557000575.9,286047004.0,N
1557000595.8,286047005.0,Y
1557000615.6,286047001.3,P
1557000635.4,286047004.3,P
1557000655.3,286047001.3,N
1557000675.1,286047002.8,N
1557000695.9,286046999.7,N
1557000715.7,286046999.8,N
1557000735.5,286047002.2,N
1557000755.4,286047001.3,N
1557000775.2,286047003.8,N
1557000795.1,286047003.3,N
1557000796.0,286047003.3,N
1557000815.8,286047003.1,N
1557000835.6,286047001.3,N
1557000855.5,286047002.8,N
1557000875.3,286047004.4,Y
1557000895.1,286047002.1,P
1557000915.9,286047001.3,P
1557000935.7,286047004.4,P
1557000955.6,286047000.1,N
1557000975.4,286046999.9,N
1557000995.2,286047000.5,N
1557001015.1,286047001.4,N
1557001016.0,286047001.4,N
1557001035.8,286047002.7,N
1557001055.7,286047000.2,N
1557001075.5,286047002.4,N
1557001095.3,286047001.3,N
1557001115.2,286047002.3,N
1557001135.9,286046999.7,N
1557001155.7,286047001.7,N
1557001175.6,286047001.4,N
1557001195.4,286047002.1,N
1557001215.3,286047002.4,N
1557001235.1,286047001.6,N
1557001236.0,286047001.6,N
1557001255.8,286047004.2,Y
1557001275.7,286047000.2,P
1557001295.5,286047000.1,N
1557001315.4,286047002.7,P
1557001335.2,286046999.9,N
1557001355.0,286047000.3,N
1557001355.9,286047000.3,N
1557001375.8,286047000.5,N
1557001395.6,286047000.2,N
1557001415.4,286047002.2,N
1557001435.3,286046999.7,N
1557001455.1,286047002.3,N
1557001475.9,286047002.2,N
1557001495.7,286047000.9,N
1557001515.5,286046998.8,N
1557001535.4,286046998.8,N
1557001555.2,286047000.5,N
1557001575.0,286047002.2,N
1557001575.9,286047002.2,N
1557001595.8,286047002.2,N
1557001615.6,286047001.6,N
1557001635.4,286047002.3,N
1557001655.3,286047001.0,N
1557001675.1,286046999.7,N
1557001695.9,286046998.5,N
1557001715.7,286046998.5,N
1557001735.5,286046998.3,N
1557001755.4,286047000.4,N
1557001775.2,286047002.6,N
1557001795.0,286046999.7,N
1557001795.9,286046999.7,N
1557001815.8,286047002.5,N
1557001835.6,286047002.2,N
1557001855.5,286047001.8,N
1557001875.3,286047002.6,N
1557001895.1,286047000.5,N
1557001915.9,286046999.3,N
1557001935.7,286046998.5,N
1557001955.5,286046998.3,N
1557001975.4,286046998.1,N
1557001995.2,286046999.1,N
1557002015.1,286046998.7,N
1557002016.0,286046998.7,N
1557002035.8,286047000.6,N
1557002055.6,286047001.3,N
1557002075.5,286047001.7,N
1557002095.3,286047004.1,N
1557002115.1,286047005.7,Y
1557002135.9,286047004.8,P
1557002155.7,286047007.5,P
1557002175.6,286047005.1,N
1557002195.4,286047005.5,N
1557002215.2,286047004.2,N
1557002235.1,286047004.4,N
1557002236.0,286047004.4,N
1557002255.8,286047000.2,N
1557002275.6,286047002.7,N
1557002295.5,286047003.5,N
1557002315.3,286047004.1,N
1557002335.2,286047003.9,N
1557002355.9,286047003.2,N
1557002375.7,286047003.1,N
1557002395.6,286047003.4,N
1557002415.4,286047004.0,N
1557002435.3,286047000.2,N
1557002455.1,286047003.9,N
1557002456.0,286047003.9,N
1557002475.8,286047002.0,N
1557002495.7,286047002.1,N
1557002515.5,286047001.7,N
1557002535.4,286047003.4,N
1557002555.2,286047005.9,Y
1557002575.0,286046998.1,P
1557002575.9,286046998.1,N
1557002595.8,286046998.6,N
1557002615.6,286046999.0,N
1557002635.4,286047001.1,N
1557002655.3,286047002.8,N
1557002675.1,286047001.6,N
1557002695.9,286047001.9,N
1557002715.7,286047001.7,N
1557002735.5,286047000.1,N
1557002755.4,286046998.4,N
1557002775.2,286046997.2,N
1557002795.0,286046996.6,N
1557002795.9,286046996.6,N
1557002815.8,286046996.9,N
1557002835.6,286046997.9,N
1557002855.5,286046995.6,N
1557002875.3,286046997.7,N
1557002895.1,286046997.0,N
1557002915.9,286046996.5,N
1557002935.7,286046996.5,N
1557002955.5,286046996.5,N
1557002975.4,286046999.4,N
1557002995.2,286046997.1,N
1557003015.1,286046997.3,N
1557003016.0,286046997.3,N
1557003035.8,286046999.4,N
1557003055.6,286046999.6,N
1557003075.5,286046999.0,N
1557003095.3,286046999.2,N
1557003115.1,286046998.4,N
1557003135.9,286047000.5,N
1557003155.7,286047002.2,N
1557003175.6,286047001.1,N
1557003195.4,286047000.2,N
1557003215.2,286047001.2,N
1557003235.1,286047001.0,N
1557003236.0,286047001.0,N
1557003255.8,286047000.4,N
1557003275.6,286047001.7,N
1557003295.5,286047002.0,N
1557003315.3,286047002.5,N
1557003335.1,286047001.6,N
1557003355.9,286047000.6,N
1557003375.7,286046997.1,N
1557003395.6,286046999.1,N
1557003415.4,286046997.7,N
1557003435.2,286046996.5,N
1557003455.1,286047000.7,N
1557003456.0,286047000.7,N
1557003475.8,286046999.1,N
1557003495.6,286046998.7,N
1557003515.5,286046998.8,N
1557003535.3,286046999.5,N
1557003555.2,286046996.9,N
1557003575.0,286046995.0,Y
1557003575.9,286046995.0,P
1557003595.7,286046997.1,N
